time_stamp(utc),avg(mph),gust(mph),direction(deg),12m_air_temp(f),sonic_u(cm/s),sonic_v(cm/s),sonic_w(cm/s),pressure,2m_air_temp(f),pyranometer(W/m^2)
"2021-12-16 00:00:40+00",12.8,14.8,,,235,-508,2,1028.09,52.3,0
"2021-12-16 00:05:40+00",12.2,14.2,,,183,-487,-11,1028.07,52.2,0
"2021-12-16 00:10:40+00",14.5,16.5,,,247,-573,-16,1028.06,52.2,0
"2021-12-16 00:15:40+00",14.7,18.7,,,251,-587,-9,1028.01,52.4,0
"2021-12-16 00:20:40+00",10.7,12.7,,,145,-439,-18,1028.03,52,0
"2021-12-16 00:25:40+00",9.1,11.1,,,78,-386,-12,1028.02,51.8,0
"2021-12-16 00:30:40+00",10.2,13.2,,,109,-437,-6,1028.04,51.5,0
"2021-12-16 00:35:40+00",11.0,13.0,,,139,-451,-8,1027.97,51.5,0
"2021-12-16 00:40:40+00",11.3,13.3,,,145,-456,-1,1027.9,51.6,0
"2021-12-16 00:45:40+00",9.5,12.5,,,69,-421,-4,1027.72,51.5,0
"2021-12-16 00:50:40+00",10.4,13.4,,51.9,108,-435,-12,1027.73,51.4,0
"2021-12-16 00:55:40+00",12.6,13.6,,,155,-510,-22,1027.71,51.3,0
"2021-12-16 01:00:40+00",10.7,13.7,,,91,-445,-7,1027.67,51.5,0
"2021-12-16 01:05:40+00",10.9,13.9,,,107,-461,-9,1027.52,51.5,0
"2021-12-16 01:10:40+00",9.8,11.8,,,89,-406,1,1027.57,51.5,0
"2021-12-16 01:15:40+00",10.1,12.1,,,94,-443,-6,1027.47,51.3,0
"2021-12-16 01:20:40+00",10.5,13.5,,,86,-449,-3,1027.34,51.4,0
"2021-12-16 01:25:40+00",11.0,14.0,,,122,-460,6,1027.27,51.5,0
"2021-12-16 01:30:40+00",12.5,13.5,,,93,-533,-15,1027.2,51.6,0
"2021-12-16 01:35:40+00",11.5,13.5,,,79,-501,-4,1027.17,51.7,0
"2021-12-16 01:40:40+00",10.8,12.8,,,50,-453,-11,1027.12,51.6,0
"2021-12-16 01:45:40+00",9.9,12.9,,,24,-427,-12,1027.2,51.5,0
"2021-12-16 01:50:40+00",11.9,14.9,,,47,-495,-3,1027.05,51.7,0
"2021-12-16 01:55:40+00",11.4,15.4,,,18,-454,21,1026.88,52,0
"2021-12-16 02:00:40+00",10.0,15.0,,,12,-426,-4,1026.78,52.2,0
"2021-12-16 02:05:40+00",10.5,14.5,,,-8,-434,-14,1026.71,52.4,0
"2021-12-16 02:10:40+00",10.8,14.8,,,-1,-457,-22,1026.52,52.4,0
"2021-12-16 02:15:40+00",10.3,13.3,,,-7,-436,-7,1026.47,52.3,0
"2021-12-16 02:20:40+00",12.2,15.2,,,-6,-527,-32,1026.31,52.5,0
"2021-12-16 02:25:40+00",11.4,14.4,,,-27,-481,-31,1026.37,52.6,0
"2021-12-16 02:30:40+00",11.2,14.2,,,-45,-469,4,1026.35,52.8,0
"2021-12-16 02:35:40+00",10.3,15.3,,,-47,-441,-15,1026.36,52.9,0
"2021-12-16 02:40:40+00",10.0,16.0,,,-57,-419,-4,1026.32,53.1,0
"2021-12-16 02:45:40+00",7.8,9.8,,,-46,-333,18,1026.4,53.2,0
"2021-12-16 02:50:40+00",9.4,11.4,,,-95,-405,-3,1026.48,53.1,0
"2021-12-16 02:55:40+00",10.4,12.4,,,-104,-437,5,1026.51,53.1,0
"2021-12-16 03:00:40+00",8.9,11.9,,,-110,-359,1,1026.34,53,0
"2021-12-16 03:05:40+00",9.1,12.1,,,-154,-372,-1,1026.27,52.8,0
"2021-12-16 03:10:40+00",9.2,11.2,,,-174,-374,5,1026.28,52.7,0
"2021-12-16 03:15:40+00",9.2,11.2,,,-205,-363,-1,1026.28,52.7,0
"2021-12-16 03:20:40+00",9.3,10.3,,,-189,-368,-4,1026.28,52.5,0
"2021-12-16 03:25:40+00",10.8,12.8,,,-186,-439,-9,1026.15,52.6,0
"2021-12-16 03:30:40+00",11.6,14.6,,,-140,-486,-2,1025.98,53.1,0
"2021-12-16 03:35:40+00",13.4,16.4,,,-175,-551,-9,1025.96,53.3,0
"2021-12-16 03:40:40+00",11.0,14.0,,,-132,-460,-10,1025.94,53.5,0
"2021-12-16 03:45:40+00",11.2,13.2,,,-150,-458,-5,1025.91,53.7,0
"2021-12-16 03:50:40+00",12.5,16.5,,,-167,-525,-12,1025.82,53.7,0
"2021-12-16 03:55:40+00",13.1,16.1,,,-202,-540,-9,1025.75,53.9,0
"2021-12-16 04:00:40+00",10.9,14.9,,,-127,-449,-6,1025.73,53.8,0
"2021-12-16 04:05:40+00",11.8,13.8,,,-159,-492,-5,1025.78,53.8,0
"2021-12-16 04:10:40+00",13.3,15.3,,,-193,-541,-10,1025.65,53.8,0
"2021-12-16 04:15:40+00",11.4,13.4,,,-169,-471,8,1025.51,53.7,0
"2021-12-16 04:20:40+00",13.0,16.0,,,-206,-536,-8,1025.35,53.7,0
"2021-12-16 04:25:40+00",13.9,16.9,,,-249,-569,-6,1025.34,53.7,0
"2021-12-16 04:30:40+00",14.2,17.2,,,-292,-568,-8,1025.22,53.7,0
"2021-12-16 04:35:40+00",13.7,15.7,,,-235,-561,-1,1025.1,53.8,0
"2021-12-16 04:40:40+00",13.1,16.1,,,-187,-532,-1,1024.91,53.8,0
"2021-12-16 04:45:40+00",14.6,17.6,,,-242,-604,5,1024.83,53.9,0
"2021-12-16 04:50:40+00",12.3,14.3,,,-263,-498,13,1024.91,53.8,0
"2021-12-16 04:55:40+00",12.4,14.4,,,-254,-495,1,1024.97,53.7,0
"2021-12-16 05:00:40+00",13.2,15.2,,,-286,-527,-4,1024.85,53.6,0
"2021-12-16 05:05:40+00",11.3,14.3,,,-298,-421,18,1024.82,53.5,0
"2021-12-16 05:10:40+00",10.8,11.8,,,-307,-369,4,1024.72,53.1,0
"2021-12-16 05:15:40+00",9.5,10.5,,,-276,-331,2,1024.64,52.7,0
"2021-12-16 05:20:40+00",9.0,10.0,,,-268,-293,4,1024.62,52.3,0
"2021-12-16 05:25:40+00",9.1,11.1,,,-266,-305,11,1024.7,52,0
"2021-12-16 05:30:40+00",8.8,9.8,,,-312,-242,8,1024.62,51.8,0
"2021-12-16 05:35:40+00",9.8,10.8,,,-325,-282,4,1024.56,51.5,0
"2021-12-16 05:40:40+00",9.6,11.6,,,-279,-333,2,1024.46,51.3,0
"2021-12-16 05:45:40+00",9.0,10.0,,,-244,-327,-1,1024.3,51,0
"2021-12-16 05:50:40+00",8.7,9.7,,,-213,-335,-5,1024.26,50.7,0
"2021-12-16 05:55:40+00",8.9,9.9,,,-173,-352,-3,1024.26,50.4,0
"2021-12-16 06:00:40+00",9.3,10.3,,,-209,-359,-3,1024.38,50.6,0
"2021-12-16 06:05:40+00",9.6,10.6,,,-267,-356,0,1024.2,50.8,0
"2021-12-16 06:10:40+00",9.8,10.8,,,-255,-373,-3,1024.13,50.9,0
"2021-12-16 06:15:40+00",10.3,12.3,,,-279,-375,3,1023.99,50.9,0
"2021-12-16 06:20:40+00",10.8,12.8,,,-305,-389,-6,1023.81,50.8,0
"2021-12-16 06:25:40+00",11.2,16.2,,,-282,-417,1,1023.76,50.7,0
"2021-12-16 06:30:40+00",12.0,14.0,,,-265,-474,14,1023.71,50.9,0
"2021-12-16 06:35:40+00",13.8,15.8,,,-327,-536,1,1023.55,51.3,0
"2021-12-16 06:40:40+00",13.7,15.7,,,-371,-496,13,1023.66,51.5,0
"2021-12-16 06:45:40+00",13.0,15.0,,,-354,-486,14,1023.62,51.6,0
"2021-12-16 06:50:40+00",14.2,16.2,,,-401,-503,3,1023.7,51.7,0
"2021-12-16 06:55:40+00",13.5,15.5,,,-379,-490,5,1023.63,51.7,0
"2021-12-16 07:00:40+00",13.2,15.2,,,-389,-455,7,1023.69,51.8,0
"2021-12-16 07:05:40+00",12.3,14.3,,,-354,-437,12,1023.63,51.8,0
"2021-12-16 07:10:40+00",11.8,14.8,,,-353,-413,6,1023.66,51.7,0
"2021-12-16 07:15:40+00",12.5,14.5,,,-375,-416,10,1023.74,51.7,0
"2021-12-16 07:20:40+00",13.4,14.4,,,-400,-447,-14,1023.72,51.5,0
"2021-12-16 07:25:40+00",12.9,14.9,,,-389,-422,-1,1023.7,51.4,0
"2021-12-16 07:30:40+00",12.1,14.1,,,-373,-379,4,1023.67,51.4,0
"2021-12-16 07:35:40+00",10.6,12.6,,,-321,-332,9,1023.77,51.3,0
"2021-12-16 07:40:40+00",9.8,10.8,,,-332,-278,10,1023.64,51,0
"2021-12-16 07:45:40+00",10.6,12.6,,,-335,-314,11,1023.62,50.8,0
"2021-12-16 07:50:40+00",10.7,11.7,,,-353,-314,11,1023.5,50.6,0
"2021-12-16 07:55:40+00",9.7,10.7,,,-320,-280,8,1023.46,50.5,0
"2021-12-16 08:00:40+00",9.7,10.7,,,-284,-318,3,1023.34,50.4,0
"2021-12-16 08:05:40+00",9.9,10.9,,,-319,-290,-3,1023.31,50.3,0
"2021-12-16 08:10:40+00",9.9,10.9,,,-330,-275,10,1023.26,50.3,0
"2021-12-16 08:15:40+00",10.5,11.5,,,-324,-323,5,1023.15,50.2,0
"2021-12-16 08:20:40+00",10.4,12.4,,,-328,-307,4,1023.06,50.3,0
"2021-12-16 08:25:40+00",10.7,11.7,,,-341,-327,9,1022.99,50.3,0
"2021-12-16 08:30:40+00",11.7,13.7,,,-345,-403,4,1022.8,50.3,0
"2021-12-16 08:35:40+00",11.9,13.9,,,-344,-423,3,1022.74,50.4,0
"2021-12-16 08:40:40+00",12.8,13.8,,,-377,-443,3,1022.64,50.4,0
"2021-12-16 08:45:40+00",12.1,13.1,,,-352,-429,14,1022.65,50.4,0
"2021-12-16 08:50:40+00",12.3,13.3,,,-349,-435,3,1022.46,50.3,0
"2021-12-16 08:55:40+00",12.6,13.6,,,-383,-416,5,1022.52,50.3,0
"2021-12-16 09:00:40+00",13.4,14.4,,,-429,-399,-5,1022.49,50.3,0
"2021-12-16 09:05:40+00",13.5,15.5,,,-449,-386,-6,1022.48,50.3,0
"2021-12-16 09:10:40+00",12.5,14.5,,,-437,-354,12,1022.53,50.2,0
"2021-12-16 09:15:40+00",12.0,14.0,,,-412,-337,19,1022.43,50.1,0
"2021-12-16 09:20:40+00",12.0,15.0,,,-433,-320,9,1022.43,50,0
"2021-12-16 09:25:40+00",11.3,12.3,,,-397,-316,7,1022.47,49.8,0
"2021-12-16 09:30:40+00",11.0,13.0,,,-347,-323,6,1022.48,49.7,0
"2021-12-16 09:35:40+00",11.0,13.0,,,-350,-324,7,1022.44,49.6,0
"2021-12-16 09:40:40+00",10.3,11.3,,,-326,-307,1,1022.29,49.6,0
"2021-12-16 09:45:40+00",10.2,11.2,,,-311,-320,0,1022.27,49.5,0
"2021-12-16 09:50:40+00",10.2,11.2,,,-298,-349,-2,1022.1,49.4,0
"2021-12-16 09:55:40+00",10.3,11.3,,,-307,-335,4,1022.06,49.3,0
"2021-12-16 10:00:40+00",11.0,12.0,,,-323,-361,0,1022.08,49.4,0
"2021-12-16 10:05:40+00",10.6,12.6,,,-307,-393,-1,1022,49.5,0
"2021-12-16 10:10:40+00",10.6,12.6,,,-301,-381,2,1021.89,49.7,0
"2021-12-16 10:15:40+00",10.8,11.8,,,-321,-365,4,1021.87,49.8,0
"2021-12-16 10:20:40+00",12.0,14.0,,,-363,-384,3,1021.88,49.9,0
"2021-12-16 10:25:40+00",12.6,15.6,,,-382,-412,0,1021.83,50.1,0
"2021-12-16 10:30:40+00",12.2,15.2,,,-369,-395,6,1021.78,50.2,0
"2021-12-16 10:35:40+00",11.1,12.1,,,-343,-355,11,1021.72,50.2,0
"2021-12-16 10:40:40+00",11.3,13.3,,,-354,-348,4,1021.83,50.1,0
"2021-12-16 10:45:40+00",10.9,11.9,,,-337,-332,14,1021.9,50,0
"2021-12-16 10:50:40+00",10.3,12.3,,,-329,-307,8,1022,49.9,0
"2021-12-16 10:55:40+00",9.4,11.4,,,-281,-296,5,1022.06,49.8,0
"2021-12-16 11:00:40+00",9.5,10.5,,,-284,-302,5,1022.18,49.7,0
"2021-12-16 11:05:40+00",10.0,11.0,,,-309,-306,1,1022.19,49.6,0
"2021-12-16 11:10:40+00",10.0,11.0,,,-305,-313,3,1022.3,49.5,0
"2021-12-16 11:15:40+00",10.1,11.1,,,-317,-298,1,1022.36,49.3,0
"2021-12-16 11:20:40+00",9.8,10.8,,,-298,-300,1,1022.24,49.3,0
"2021-12-16 11:25:40+00",9.8,9.8,,,-286,-318,1,1022.28,49.2,0
"2021-12-16 11:30:40+00",9.9,10.9,,,-304,-297,-3,1022.24,49.1,0
"2021-12-16 11:35:40+00",9.4,10.4,,,-297,-276,-1,1022.4,49,0
"2021-12-16 11:40:40+00",9.4,10.4,,,-275,-303,1,1022.37,48.8,0
"2021-12-16 11:45:40+00",9.9,10.9,,,-292,-305,-1,1022.33,48.7,0
"2021-12-16 11:50:40+00",9.4,10.4,,,-276,-338,-2,1022.15,48.6,0
"2021-12-16 11:55:40+00",10.3,11.3,,,-281,-383,-4,1022.17,48.4,0
"2021-12-16 12:00:40+00",9.9,9.9,,,-241,-373,-3,1022.05,48.4,0
"2021-12-16 12:05:40+00",9.8,9.8,,,-236,-366,-4,1022.06,48.4,0
"2021-12-16 12:10:40+00",9.9,9.9,,,-229,-376,-2,1022.01,48.4,0
"2021-12-16 12:15:40+00",10.0,11.0,,,-254,-372,-2,1021.98,48.3,0
"2021-12-16 12:20:40+00",9.3,10.3,,,-274,-338,0,1021.9,48.2,0
"2021-12-16 12:25:40+00",9.3,10.3,,,-254,-354,-3,1021.85,48.2,0
"2021-12-16 12:30:40+00",9.2,10.2,,,-249,-349,-3,1021.81,48.1,0
"2021-12-16 12:35:40+00",8.9,8.9,,,-250,-337,0,1021.85,48,0
"2021-12-16 12:40:40+00",8.8,9.8,,,-190,-347,-4,1021.78,47.9,0
"2021-12-16 12:45:40+00",8.2,9.2,,,-187,-316,-3,1021.87,47.8,0
"2021-12-16 12:50:40+00",8.0,9.0,,,-209,-297,-3,1021.98,47.9,0
"2021-12-16 12:55:40+00",7.4,8.4,,,-202,-264,-4,1021.95,48.3,0.8
"2021-12-16 13:00:40+00",6.7,6.7,,,-165,-247,-3,1021.86,48.6,3.4
"2021-12-16 13:05:40+00",6.5,7.5,,,-164,-238,-7,1021.94,49.1,21.3
"2021-12-16 13:10:40+00",6.6,7.6,,,-171,-233,-4,1021.81,49.7,28.1
"2021-12-16 13:15:40+00",7.3,8.3,,,-200,-255,-4,1021.67,50.3,37.8
"2021-12-16 13:20:40+00",7.5,8.5,,,-199,-275,-1,1021.65,50.8,7.6
"2021-12-16 13:25:40+00",7.9,8.9,,,-192,-303,6,1021.59,50.7,0
"2021-12-16 13:30:40+00",8.6,10.6,,,-219,-329,-2,1021.64,50.5,23.7
"2021-12-16 13:35:40+00",8.3,10.3,,,-236,-296,2,1021.57,50.8,57.8
"2021-12-16 13:40:40+00",8.5,9.5,,,-246,-302,6,1021.5,51.4,37.6
"2021-12-16 13:45:40+00",8.8,9.8,,,-224,-340,9,1021.6,51.8,72.7
"2021-12-16 13:50:40+00",9.7,11.7,,,-253,-358,6,1021.45,52.2,65.5
"2021-12-16 13:55:40+00",9.5,11.5,,,-270,-342,13,1021.54,52.5,91.7
"2021-12-16 14:00:40+00",10.7,12.7,,,-314,-358,-1,1021.54,52.8,92.1
"2021-12-16 14:05:40+00",10.0,12.0,,,-311,-312,11,1021.58,53.1,96.3
"2021-12-16 14:10:40+00",10.1,12.1,,,-318,-314,28,1021.56,53.5,105.5
"2021-12-16 14:15:40+00",11.6,14.6,,,-388,-351,8,1021.62,53.9,110.8
"2021-12-16 14:20:40+00",13.4,14.4,,,-431,-400,-8,1021.53,53.9,88.6
"2021-12-16 14:25:40+00",12.5,14.5,,,-429,-357,14,1021.56,53.8,103
"2021-12-16 14:30:40+00",14.3,19.3,,,-487,-409,-1,1021.47,54.1,132.9
"2021-12-16 14:35:40+00",13.6,15.6,,,-451,-404,8,1021.52,54.4,142.5
"2021-12-16 14:40:40+00",13.1,16.1,,,-431,-402,20,1021.42,54.6,125.4
"2021-12-16 14:45:40+00",13.0,14.0,,,-412,-396,15,1021.45,54.7,132.6
"2021-12-16 14:50:40+00",13.9,17.9,,,-433,-427,-5,1021.32,55,136.8
"2021-12-16 14:55:40+00",12.3,14.3,,,-384,-401,35,1021.36,55.2,142.2
"2021-12-16 15:00:40+00",14.1,16.1,,,-474,-407,2,1021.39,55.5,159.2
"2021-12-16 15:05:40+00",12.9,14.9,,,-439,-373,11,1021.33,55.7,161.2
"2021-12-16 15:10:40+00",13.0,15.0,,,-524,-332,12,1021.49,56.1,170.3
"2021-12-16 15:15:40+00",11.3,13.3,,,-461,-274,18,1021.63,56.7,168.4
"2021-12-16 15:20:40+00",13.9,15.9,,,-505,-390,48,1021.53,57,155.1
"2021-12-16 15:25:40+00",16.3,18.3,,55.3,-555,-471,14,1021.41,56.9,145.3
"2021-12-16 15:30:40+00",15.3,18.3,,,-524,-441,25,1021.41,56.9,142
"2021-12-16 15:35:40+00",15.4,17.4,,,-498,-457,26,1021.22,56.9,167.4
"2021-12-16 15:40:40+00",16.4,20.4,,,-559,-472,7,1021.2,57.2,158.7
"2021-12-16 15:45:40+00",15.5,18.5,,,-569,-419,13,1021.16,57.5,168.6
"2021-12-16 15:50:40+00",15.5,17.5,,,-511,-438,22,1021.05,57.9,190.8
"2021-12-16 15:55:40+00",16.0,19.0,,,-523,-478,9,1020.9,58.3,184.3
"2021-12-16 16:00:40+00",15.8,18.8,,,-494,-501,45,1020.86,58.2,195.3
"2021-12-16 16:05:40+00",16.1,18.1,,,-507,-496,-5,1020.68,58.1,145.9
"2021-12-16 16:10:40+00",16.5,18.5,,,-525,-490,19,1020.64,58,203.9
"2021-12-16 16:15:40+00",14.8,16.8,,,-478,-444,15,1020.43,58.2,153.7
"2021-12-16 16:20:40+00",18.1,22.1,,,-595,-533,16,1020.31,58.2,143.5
"2021-12-16 16:25:40+00",15.4,21.4,,,-454,-515,36,1020.18,58.3,109.3
"2021-12-16 16:30:40+00",13.8,15.8,,,-397,-477,19,1020,58.6,163.4
"2021-12-16 16:35:40+00",15.8,18.8,,,-474,-513,-3,1020.01,59,174.6
"2021-12-16 16:40:40+00",16.2,19.2,,58,-505,-518,19,1019.86,59,164.5
"2021-12-16 16:45:40+00",16.5,18.5,,,-520,-512,34,1019.69,58.9,174.3
"2021-12-16 16:50:40+00",17.8,20.8,,,-578,-532,15,1019.51,59,179.2
"2021-12-16 16:55:40+00",16.0,19.0,,,-483,-545,44,1019.38,59,170
"2021-12-16 17:00:40+00",19.3,22.3,,,-559,-669,11,1019.26,59.2,188.4
"2021-12-16 17:05:40+00",17.5,20.5,,,-544,-565,1,1019.13,59.6,198.4
"2021-12-16 17:10:40+00",14.3,17.3,,,-368,-550,27,1018.96,60,180.5
"2021-12-16 17:15:40+00",16.8,18.8,,,-343,-676,-18,1018.82,60,189.4
"2021-12-16 17:20:40+00",17.8,22.8,,,-378,-710,3,1018.77,60.1,188.6
"2021-12-16 17:25:40+00",9.2,11.2,,,-67,-391,-2,1018.55,59.5,181.6
"2021-12-16 17:30:40+00",8.7,10.7,,,-87,-366,-16,1018.61,58.2,159.2
"2021-12-16 17:35:40+00",8.7,10.7,,,-35,-356,15,1018.56,57.8,186.8
"2021-12-16 17:40:40+00",10.6,12.6,,,-208,-432,6,1018.57,58.3,181.6
"2021-12-16 17:45:40+00",7.4,11.4,,,-130,-291,56,1018.27,59.2,179.5
"2021-12-16 17:50:40+00",11.0,14.0,,58.4,-143,-445,3,1018.12,59.5,195.7
"2021-12-16 17:55:40+00",9.5,13.5,,,-89,-422,-13,1018.05,58.1,182.3
"2021-12-16 18:00:40+00",11.1,13.1,,,-142,-453,-8,1018.06,58.4,187.2
"2021-12-16 18:05:40+00",12.5,16.5,,,-299,-490,11,1017.91,59.3,176.8
"2021-12-16 18:10:40+00",12.7,14.7,,,-322,-481,6,1017.74,60.1,195.9
"2021-12-16 18:15:40+00",14.6,16.6,,,-331,-580,1,1017.59,60.5,180.9
"2021-12-16 18:20:40+00",15.9,17.9,,,-392,-615,9,1017.44,60.4,184.5
"2021-12-16 18:25:40+00",14.4,16.4,,,-362,-557,3,1017.39,60.5,185.4
"2021-12-16 18:30:40+00",16.3,18.3,,,-480,-543,13,1017.35,60.5,159.5
"2021-12-16 18:35:40+00",18.5,20.5,,,-479,-701,-5,1017.21,60.4,155.8
"2021-12-16 18:40:40+00",15.5,20.5,,,-425,-591,22,1017.09,60.5,169.2
"2021-12-16 18:45:40+00",17.3,20.3,,,-444,-675,12,1016.91,60.5,165.7
"2021-12-16 18:50:40+00",18.0,23.0,,,-407,-722,-12,1016.74,60.5,166.8
"2021-12-16 18:55:40+00",19.6,23.6,,,-453,-770,8,1016.74,60.6,154.3
"2021-12-16 19:00:40+00",17.4,21.4,,,-398,-681,0,1016.67,60.4,141.6
"2021-12-16 19:05:40+00",18.4,21.4,,,-358,-748,1,1016.72,60.1,147.9
"2021-12-16 19:10:40+00",20.2,23.2,,,-393,-823,-8,1016.53,59.8,169.8
"2021-12-16 19:15:40+00",19.0,23.0,,,-284,-780,-7,1016.52,60,147.7
"2021-12-16 19:20:40+00",17.4,19.4,,,-343,-706,7,1016.43,59.8,114.5
"2021-12-16 19:25:40+00",16.9,21.9,,,-361,-678,1,1016.4,59.4,98.7
"2021-12-16 19:30:40+00",18.4,20.4,,58.6,-405,-731,-25,1016.43,59.3,107
"2021-12-16 19:35:40+00",15.0,18.0,,58.6,-368,-589,8,1016.36,59.2,94.8
"2021-12-16 19:40:40+00",14.8,16.8,,,-344,-580,17,1016.33,59.2,103.2
"2021-12-16 19:45:40+00",14.5,16.5,,,-324,-573,14,1016.25,59.2,117.6
"2021-12-16 19:50:40+00",16.7,20.7,,58.3,-417,-656,-2,1016.2,59,78.9
"2021-12-16 19:55:40+00",14.1,18.1,,,-323,-554,18,1016.19,58.6,70.3
"2021-12-16 20:00:40+00",13.7,17.7,,,-316,-543,7,1016.24,58.3,70.5
"2021-12-16 20:05:40+00",16.4,19.4,,,-411,-631,-2,1016.18,58.2,71.6
"2021-12-16 20:10:40+00",14.0,17.0,,,-388,-525,16,1016.28,58.1,47.8
"2021-12-16 20:15:40+00",16.1,18.1,,,-420,-602,-17,1016.25,58,32.5
"2021-12-16 20:20:40+00",13.4,16.4,,,-349,-533,21,1016.26,57.7,21.2
"2021-12-16 20:25:40+00",14.7,16.7,,,-362,-568,-3,1016.16,57.1,10.5
"2021-12-16 20:30:40+00",14.5,17.5,,,-316,-580,0,1016.14,56.8,23.6
"2021-12-16 20:35:40+00",14.4,16.4,,,-300,-572,13,1016.1,56.7,26.2
"2021-12-16 20:40:40+00",14.1,17.1,,,-275,-566,-3,1016.03,56.5,2.3
"2021-12-16 20:45:40+00",14.6,16.6,,,-295,-589,-2,1016.03,56.2,0
"2021-12-16 20:50:40+00",13.2,15.2,,,-268,-527,12,1015.99,55.9,0.2
"2021-12-16 20:55:40+00",13.4,15.4,,,-250,-543,0,1015.98,55.7,0
"2021-12-16 21:00:40+00",13.1,17.1,,,-227,-529,7,1015.98,55.3,0
"2021-12-16 21:05:40+00",13.0,15.0,,,-210,-525,-8,1016.01,54.9,0
"2021-12-16 21:10:40+00",13.6,16.6,,,-266,-549,5,1016.04,54.7,0
"2021-12-16 21:15:40+00",12.3,16.3,,,-230,-497,11,1016.12,54.4,0
"2021-12-16 21:20:40+00",13.2,15.2,,,-256,-529,1,1016.09,54,0
"2021-12-16 21:25:40+00",13.4,15.4,,,-305,-537,8,1016.02,53.8,0
"2021-12-16 21:30:40+00",14.4,15.4,,,-322,-564,-12,1016.01,53.6,0
"2021-12-16 21:35:40+00",12.2,15.2,,,-309,-475,7,1016.2,53.4,0
"2021-12-16 21:40:40+00",11.6,14.6,,,-327,-427,17,1016.2,53.2,0
"2021-12-16 21:45:40+00",10.8,12.8,,,-352,-316,17,1016.3,52.9,0
"2021-12-16 21:50:40+00",9.8,10.8,,,-328,-283,6,1016.27,52.5,0
"2021-12-16 21:55:40+00",10.6,12.6,,52.5,-325,-327,4,1016.28,52,0
"2021-12-16 22:00:40+00",12.3,14.3,,,-373,-386,6,1016.39,51.7,0
"2021-12-16 22:05:40+00",13.0,15.0,,,-399,-422,10,1016.29,51.7,0
"2021-12-16 22:10:40+00",13.9,16.9,,,-428,-457,8,1016.26,51.7,0
"2021-12-16 22:15:40+00",14.1,15.1,,,-435,-433,4,1016.21,51.7,0
"2021-12-16 22:20:40+00",13.0,15.0,,,-419,-396,11,1016.15,51.6,0
"2021-12-16 22:25:40+00",13.0,15.0,,,-392,-413,1,1016.2,51.5,0
"2021-12-16 22:30:40+00",12.6,14.6,,,-369,-421,10,1016.13,51.5,0
"2021-12-16 22:35:40+00",11.1,12.1,,,-315,-401,9,1016.14,51.4,0
"2021-12-16 22:40:40+00",12.0,14.0,,,-349,-421,6,1015.96,51.4,0
"2021-12-16 22:45:40+00",11.2,13.2,,,-300,-417,4,1015.82,51.4,0
"2021-12-16 22:50:40+00",10.1,11.1,,,-251,-384,1,1015.88,51.3,0
"2021-12-16 22:55:40+00",8.8,9.8,,,-216,-336,4,1015.95,51.1,0
"2021-12-16 23:00:40+00",8.7,9.7,,,-182,-347,5,1016,50.8,0
"2021-12-16 23:05:40+00",10.3,12.3,,,-174,-420,-3,1015.92,50.8,0
"2021-12-16 23:10:40+00",11.5,12.5,,,-185,-472,3,1015.85,51.1,0
"2021-12-16 23:15:40+00",12.3,14.3,,,-213,-496,-5,1015.81,51.4,0
"2021-12-16 23:20:40+00",11.8,14.8,,,-178,-485,-6,1015.76,51.6,0
"2021-12-16 23:25:40+00",11.3,13.3,,,-194,-459,2,1015.79,51.7,0
"2021-12-16 23:30:40+00",10.2,12.2,,,-173,-415,5,1015.74,51.7,0
"2021-12-16 23:35:40+00",9.3,10.3,,,-140,-376,3,1015.75,51.6,0
"2021-12-16 23:40:40+00",9.4,10.4,,,-176,-375,-7,1015.66,51.4,0
"2021-12-16 23:45:40+00",8.6,10.6,,,-145,-347,0,1015.68,51.4,0
"2021-12-16 23:50:40+00",7.6,10.6,,,-103,-311,-4,1015.55,51.2,0
"2021-12-16 23:55:40+00",7.9,9.9,,,-106,-331,-4,1015.56,51,0
